Time,TemperatureF,DewpointF,PressureIn,WindDirection,WindDirectionDegrees,WindSpeedMPH,WindSpeedGustMPH,Humidity,HourlyPrecipIn,Conditions,Clouds,dailyrainin,SoftwareType,DateUTC
2013-08-11 00:02:00,66.0,-99.9,-100.00,SSW,203,1.0,-999.0,0,-99.99,,,-99.99,,2013-08-11 05:02:00,
2013-08-11 00:21:00,66.0,-99.9,-100.00,SSW,203,1.0,-999.0,0,-99.99,,,-99.99,,2013-08-11 05:21:00,
2013-08-11 00:38:00,65.0,-99.9,-100.00,SSW,203,1.0,-999.0,0,-99.99,,,-99.99,,2013-08-11 05:38:00,
2013-08-11 00:59:00,65.0,-99.9,-100.00,SSW,203,1.0,-999.0,0,-99.99,,,-99.99,,2013-08-11 05:59:00,
2013-08-11 01:05:00,64.0,-99.9,-100.00,SSW,203,1.0,-999.0,0,-99.99,,,-99.99,,2013-08-11 06:05:00,
2013-08-11 01:19:00,64.0,-99.9,-100.00,SSW,203,1.0,-999.0,0,-99.99,,,-99.99,,2013-08-11 06:19:00,
2013-08-11 01:27:00,64.0,-99.9,-100.00,SSW,203,1.0,-999.0,0,-99.99,,,-99.99,,2013-08-11 06:27:00,
2013-08-11 01:38:00,63.0,-99.9,-100.00,SSW,203,1.0,-999.0,0,-99.99,,,-99.99,,2013-08-11 06:38:00,
2013-08-11 01:50:00,63.0,-99.9,-100.00,SSW,203,1.0,-999.0,0,-99.99,,,-99.99,,2013-08-11 06:50:00,
2013-08-11 01:58:00,63.0,-99.9,-100.00,South,180,1.0,-999.0,0,-99.99,,,-99.99,,2013-08-11 06:58:00,
2013-08-11 02:07:00,64.0,-99.9,-100.00,SSW,203,2.0,-999.0,0,-99.99,,,-99.99,,2013-08-11 07:07:00,
2013-08-11 02:18:00,64.0,-99.9,-100.00,SSW,203,2.0,-999.0,0,-99.99,,,-99.99,,2013-08-11 07:18:00,
2013-08-11 02:39:00,63.0,-99.9,-100.00,SSW,203,2.0,-999.0,0,-99.99,,,-99.99,,2013-08-11 07:39:00,
2013-08-11 02:57:00,63.0,-99.9,-100.00,SW,225,3.0,-999.0,0,-99.99,,,-99.99,,2013-08-11 07:57:00,
2013-08-11 03:13:00,63.0,-99.9,-100.00,SSW,203,1.0,-999.0,0,-99.99,,,-99.99,,2013-08-11 08:13:00,
2013-08-11 03:21:00,63.0,-99.9,-100.00,SSW,203,1.0,-999.0,0,-99.99,,,-99.99,,2013-08-11 08:21:00,
2013-08-11 03:27:00,63.0,-99.9,-100.00,SSW,203,1.0,-999.0,0,-99.99,,,-99.99,,2013-08-11 08:27:00,
2013-08-11 03:37:00,63.0,-99.9,-100.00,SSW,203,2.0,-999.0,0,-99.99,,,-99.99,,2013-08-11 08:37:00,
2013-08-11 03:50:00,63.0,-99.9,-100.00,SSW,203,2.0,-999.0,0,-99.99,,,-99.99,,2013-08-11 08:50:00,
2013-08-11 04:10:00,65.0,-99.9,-100.00,SW,225,5.0,-999.0,0,-99.99,,,-99.99,,2013-08-11 09:10:00,
2013-08-11 04:17:00,65.0,-99.9,-100.00,SW,225,5.0,-999.0,0,-99.99,,,-99.99,,2013-08-11 09:17:00,
2013-08-11 04:31:00,65.0,-99.9,-100.00,SW,225,4.0,-999.0,0,-99.99,,,-99.99,,2013-08-11 09:31:00,
2013-08-11 04:38:00,65.0,-99.9,-100.00,SW,225,3.0,-999.0,0,-99.99,,,-99.99,,2013-08-11 09:38:00,
2013-08-11 04:45:00,65.0,-99.9,-100.00,SW,225,3.0,-999.0,0,-99.99,,,-99.99,,2013-08-11 09:45:00,
2013-08-11 05:02:00,64.0,-99.9,-100.00,SSW,203,2.0,-999.0,0,-99.99,,,-99.99,,2013-08-11 10:02:00,
2013-08-11 05:08:00,64.0,-99.9,-100.00,SW,225,3.0,-999.0,0,-99.99,,,-99.99,,2013-08-11 10:08:00,
2013-08-11 05:15:00,64.0,-99.9,-100.00,SW,225,3.0,-999.0,0,-99.99,,,-99.99,,2013-08-11 10:15:00,
2013-08-11 05:29:00,63.0,-99.9,-100.00,SW,225,3.0,-999.0,0,-99.99,,,-99.99,,2013-08-11 10:29:00,
2013-08-11 05:38:00,63.0,-99.9,-100.00,SSW,203,2.0,-999.0,0,-99.99,,,-99.99,,2013-08-11 10:38:00,
2013-08-11 05:48:00,63.0,-99.9,-100.00,SSW,203,2.0,-999.0,0,-99.99,,,-99.99,,2013-08-11 10:48:00,
2013-08-11 05:59:00,62.0,-99.9,-100.00,SSW,203,1.0,-999.0,0,-99.99,,,-99.99,,2013-08-11 10:59:00,
2013-08-11 06:08:00,62.0,-99.9,-100.00,South,180,1.0,-999.0,0,-99.99,,,-99.99,,2013-08-11 11:08:00,
2013-08-11 06:17:00,62.0,-99.9,-100.00,South,180,1.0,-999.0,0,-99.99,,,-99.99,,2013-08-11 11:17:00,
2013-08-11 06:25:00,62.0,-99.9,-100.00,South,180,1.0,-999.0,0,-99.99,,,-99.99,,2013-08-11 11:25:00,
2013-08-11 06:40:00,62.0,-99.9,-100.00,SSE,158,1.0,-999.0,0,-99.99,,,-99.99,,2013-08-11 11:40:00,
2013-08-11 06:51:00,62.0,-99.9,-100.00,SSE,158,1.0,-999.0,0,-99.99,,,-99.99,,2013-08-11 11:51:00,
2013-08-11 07:01:00,62.0,-99.9,-100.00,South,180,1.0,-999.0,0,-99.99,,,-99.99,,2013-08-11 12:01:00,
2013-08-11 07:16:00,62.0,-99.9,-100.00,SSW,203,1.0,-999.0,0,-99.99,,,-99.99,,2013-08-11 12:16:00,
2013-08-11 07:31:00,62.0,-99.9,-100.00,SE,135,0.0,-999.0,0,-99.99,,,-99.99,,2013-08-11 12:31:00,
2013-08-11 07:38:00,61.0,-99.9,-100.00,NE,45,0.0,-999.0,0,-99.99,,,-99.99,,2013-08-11 12:38:00,
2013-08-11 07:47:00,61.0,-99.9,-100.00,NE,45,0.0,-999.0,0,-99.99,,,-99.99,,2013-08-11 12:47:00,
2013-08-11 07:57:00,62.0,-99.9,-100.00,NNW,338,0.0,-999.0,0,-99.99,,,-99.99,,2013-08-11 12:57:00,
2013-08-11 08:07:00,63.0,-99.9,-100.00,West,270,0.0,-999.0,0,-99.99,,,-99.99,,2013-08-11 13:07:00,
2013-08-11 08:17:00,63.0,-99.9,-100.00,West,270,0.0,-999.0,0,-99.99,,,-99.99,,2013-08-11 13:17:00,
2013-08-11 08:27:00,65.0,-99.9,-100.00,SW,225,2.0,-999.0,0,-99.99,,,-99.99,,2013-08-11 13:27:00,
2013-08-11 08:42:00,66.0,-99.9,-100.00,SW,225,2.0,-999.0,0,-99.99,,,-99.99,,2013-08-11 13:42:00,
2013-08-11 08:49:00,66.0,-99.9,-100.00,SW,225,2.0,-999.0,0,-99.99,,,-99.99,,2013-08-11 13:49:00,
2013-08-11 08:59:00,68.0,-99.9,-100.00,SSW,203,1.0,-999.0,0,-99.99,,,-99.99,,2013-08-11 13:59:00,
2013-08-11 09:06:00,69.0,-99.9,-100.00,SW,225,4.0,-999.0,0,-99.99,,,-99.99,,2013-08-11 14:06:00,
2013-08-11 09:20:00,69.0,-99.9,-100.00,SW,225,4.0,-999.0,0,-99.99,,,-99.99,,2013-08-11 14:20:00,
2013-08-11 09:25:00,70.0,-99.9,-100.00,SW,225,3.0,-999.0,0,-99.99,,,-99.99,,2013-08-11 14:25:00,
2013-08-11 09:38:00,71.0,-99.9,-100.00,SW,225,5.0,-999.0,0,-99.99,,,-99.99,,2013-08-11 14:38:00,
2013-08-11 09:50:00,71.0,-99.9,-100.00,SW,225,5.0,-999.0,0,-99.99,,,-99.99,,2013-08-11 14:50:00,
2013-08-11 09:58:00,73.0,-99.9,-100.00,SW,225,4.0,-999.0,0,-99.99,,,-99.99,,2013-08-11 14:58:00,
2013-08-11 10:17:00,72.0,-99.9,-100.00,WSW,248,4.0,-999.0,0,-99.99,,,-99.99,,2013-08-11 15:17:00,
2013-08-11 10:24:00,74.0,-99.9,-100.00,SW,225,3.0,-999.0,0,-99.99,,,-99.99,,2013-08-11 15:24:00,
2013-08-11 10:42:00,74.0,-99.9,-100.00,SW,225,5.0,-999.0,0,-99.99,,,-99.99,,2013-08-11 15:42:00,
2013-08-11 11:01:00,75.0,-99.9,-100.00,WSW,248,4.0,-999.0,0,-99.99,,,-99.99,,2013-08-11 16:01:00,
2013-08-11 11:12:00,75.0,-99.9,-100.00,SW,225,4.0,-999.0,0,-99.99,,,-99.99,,2013-08-11 16:12:00,
2013-08-11 11:29:00,78.0,-99.9,-100.00,WSW,248,4.0,-999.0,0,-99.99,,,-99.99,,2013-08-11 16:29:00,
2013-08-11 11:41:00,78.0,-99.9,-100.00,West,270,4.0,-999.0,0,-99.99,,,-99.99,,2013-08-11 16:41:00,
2013-08-11 11:47:00,78.0,-99.9,-100.00,West,270,4.0,-999.0,0,-99.99,,,-99.99,,2013-08-11 16:47:00,
2013-08-11 12:00:00,79.0,-99.9,-100.00,WSW,248,6.0,-999.0,0,-99.99,,,-99.99,,2013-08-11 17:00:00,
2013-08-11 12:09:00,78.0,-99.9,-100.00,WSW,248,5.0,-999.0,0,-99.99,,,-99.99,,2013-08-11 17:09:00,
2013-08-11 12:15:00,78.0,-99.9,-100.00,WSW,248,5.0,-999.0,0,-99.99,,,-99.99,,2013-08-11 17:15:00,
2013-08-11 12:27:00,78.0,-99.9,-100.00,WSW,248,4.0,-999.0,0,-99.99,,,-99.99,,2013-08-11 17:27:00,
2013-08-11 12:38:00,80.0,-99.9,-100.00,WSW,248,6.0,-999.0,0,-99.99,,,-99.99,,2013-08-11 17:38:00,
2013-08-11 12:48:00,80.0,-99.9,-100.00,WSW,248,6.0,-999.0,0,-99.99,,,-99.99,,2013-08-11 17:48:00,
2013-08-11 12:59:00,80.0,-99.9,-100.00,WSW,248,6.0,-999.0,0,-99.99,,,-99.99,,2013-08-11 17:59:00,
2013-08-11 13:08:00,79.0,-99.9,-100.00,WSW,248,3.0,-999.0,0,-99.99,,,-99.99,,2013-08-11 18:08:00,
2013-08-11 13:20:00,79.0,-99.9,-100.00,WSW,248,3.0,-999.0,0,-99.99,,,-99.99,,2013-08-11 18:20:00,
2013-08-11 13:41:00,82.0,-99.9,-100.00,WSW,248,5.0,-999.0,0,-99.99,,,-99.99,,2013-08-11 18:41:00,
2013-08-11 13:51:00,82.0,-99.9,-100.00,WSW,248,5.0,-999.0,0,-99.99,,,-99.99,,2013-08-11 18:51:00,
2013-08-11 13:58:00,81.0,-99.9,-100.00,West,270,4.0,-999.0,0,-99.99,,,-99.99,,2013-08-11 18:58:00,
2013-08-11 14:12:00,81.0,-99.9,-100.00,WSW,248,4.0,-999.0,0,-99.99,,,-99.99,,2013-08-11 19:12:00,
2013-08-11 14:36:00,83.0,-99.9,-100.00,West,270,5.0,-999.0,0,-99.99,,,-99.99,,2013-08-11 19:36:00,
2013-08-11 14:53:00,83.0,-99.9,-100.00,West,270,5.0,-999.0,0,-99.99,,,-99.99,,2013-08-11 19:53:00,
2013-08-11 15:01:00,82.0,-99.9,-100.00,WSW,248,6.0,-999.0,0,-99.99,,,-99.99,,2013-08-11 20:01:00,
2013-08-11 15:08:00,82.0,-99.9,-100.00,WSW,248,4.0,-999.0,0,-99.99,,,-99.99,,2013-08-11 20:08:00,
2013-08-11 15:20:00,82.0,-99.9,-100.00,WSW,248,4.0,-999.0,0,-99.99,,,-99.99,,2013-08-11 20:20:00,
2013-08-11 15:28:00,83.0,-99.9,-100.00,WSW,248,4.0,-999.0,0,-99.99,,,-99.99,,2013-08-11 20:28:00,
2013-08-11 15:40:00,83.0,-99.9,-100.00,WSW,248,4.0,-999.0,0,-99.99,,,-99.99,,2013-08-11 20:40:00,
2013-08-11 15:51:00,83.0,-99.9,-100.00,WSW,248,4.0,-999.0,0,-99.99,,,-99.99,,2013-08-11 20:51:00,
2013-08-11 16:00:00,83.0,-99.9,-100.00,West,270,5.0,-999.0,0,-99.99,,,-99.99,,2013-08-11 21:00:00,
2013-08-11 16:09:00,82.0,-99.9,-100.00,WSW,248,3.0,-999.0,0,-99.99,,,-99.99,,2013-08-11 21:09:00,
2013-08-11 16:28:00,84.0,-99.9,-100.00,WSW,248,4.0,-999.0,0,-99.99,,,-99.99,,2013-08-11 21:28:00,
2013-08-11 16:38:00,83.0,-99.9,-100.00,WSW,248,4.0,-999.0,0,-99.99,,,-99.99,,2013-08-11 21:38:00,
2013-08-11 16:51:00,83.0,-99.9,-100.00,WSW,248,4.0,-999.0,0,-99.99,,,-99.99,,2013-08-11 21:51:00,
2013-08-11 16:59:00,83.0,-99.9,-100.00,WSW,248,3.0,-999.0,0,-99.99,,,-99.99,,2013-08-11 21:59:00,
2013-08-11 17:06:00,83.0,-99.9,-100.00,WSW,248,2.0,-999.0,0,-99.99,,,-99.99,,2013-08-11 22:06:00,
2013-08-11 17:17:00,83.0,-99.9,-100.00,WSW,248,2.0,-999.0,0,-99.99,,,-99.99,,2013-08-11 22:17:00,
2013-08-11 17:27:00,83.0,-99.9,-100.00,WSW,248,4.0,-999.0,0,-99.99,,,-99.99,,2013-08-11 22:27:00,
2013-08-11 17:59:00,85.0,-99.9,-100.00,WSW,248,4.0,-999.0,0,-99.99,,,-99.99,,2013-08-11 22:59:00,
2013-08-11 18:19:00,82.0,-99.9,-100.00,WSW,248,4.0,-999.0,0,-99.99,,,-99.99,,2013-08-11 23:19:00,
2013-08-11 18:31:00,81.0,-99.9,-100.00,WSW,248,2.0,-999.0,0,-99.99,,,-99.99,,2013-08-11 23:31:00,
2013-08-11 18:38:00,80.0,-99.9,-100.00,WSW,248,1.0,-999.0,0,-99.99,,,-99.99,,2013-08-11 23:38:00,
2013-08-11 18:50:00,80.0,-99.9,-100.00,WSW,248,1.0,-999.0,0,-99.99,,,-99.99,,2013-08-11 23:50:00,
2013-08-11 18:59:00,80.0,-99.9,-100.00,West,270,0.0,-999.0,0,-99.99,,,-99.99,,2013-08-11 23:59:00,
2013-08-11 19:09:00,79.0,-99.9,-100.00,West,270,0.0,-999.0,0,-99.99,,,-99.99,,2013-08-12 00:09:00,
2013-08-11 19:19:00,79.0,-99.9,-100.00,West,270,0.0,-999.0,0,-99.99,,,-99.99,,2013-08-12 00:19:00,
2013-08-11 19:26:00,78.0,-99.9,-100.00,WNW,293,0.0,-999.0,0,-99.99,,,-99.99,,2013-08-12 00:26:00,
2013-08-11 19:38:00,77.0,-99.9,-100.00,WNW,293,0.0,-999.0,0,-99.99,,,-99.99,,2013-08-12 00:38:00,
2013-08-11 19:53:00,77.0,-99.9,-100.00,WNW,293,0.0,-999.0,0,-99.99,,,-99.99,,2013-08-12 00:53:00,
2013-08-11 19:59:00,77.0,-99.9,-100.00,SSW,203,0.0,-999.0,0,-99.99,,,-99.99,,2013-08-12 00:59:00,
2013-08-11 20:09:00,75.0,-99.9,-100.00,West,270,3.0,-999.0,0,-99.99,,,-99.99,,2013-08-12 01:09:00,
2013-08-11 20:16:00,75.0,-99.9,-100.00,West,270,3.0,-999.0,0,-99.99,,,-99.99,,2013-08-12 01:16:00,
2013-08-11 20:26:00,74.0,-99.9,-100.00,NW,315,1.0,-999.0,0,-99.99,,,-99.99,,2013-08-12 01:26:00,
2013-08-11 20:40:00,74.0,-99.9,-100.00,NNW,338,2.0,-999.0,0,-99.99,,,-99.99,,2013-08-12 01:40:00,
2013-08-11 20:48:00,74.0,-99.9,-100.00,NNW,338,2.0,-999.0,0,-99.99,,,-99.99,,2013-08-12 01:48:00,
2013-08-11 20:58:00,74.0,-99.9,-100.00,NW,315,4.0,-999.0,0,-99.99,,,-99.99,,2013-08-12 01:58:00,
2013-08-11 21:10:00,73.0,-99.9,-100.00,ENE,68,3.0,-999.0,0,-99.99,,,-99.99,,2013-08-12 02:10:00,
2013-08-11 21:16:00,73.0,-99.9,-100.00,ENE,68,3.0,-999.0,0,-99.99,,,-99.99,,2013-08-12 02:16:00,
2013-08-11 21:25:00,72.0,-99.9,-100.00,ENE,68,3.0,-999.0,0,-99.99,,,-99.99,,2013-08-12 02:25:00,
2013-08-11 21:38:00,71.0,-99.9,-100.00,ENE,68,2.0,-999.0,0,-99.99,,,-99.99,,2013-08-12 02:38:00,
2013-08-11 22:00:00,70.0,-99.9,-100.00,ENE,68,1.0,-999.0,0,-99.99,,,-99.99,,2013-08-12 03:00:00,
2013-08-11 22:10:00,70.0,-99.9,-100.00,NE,45,2.0,-999.0,0,-99.99,,,-99.99,,2013-08-12 03:10:00,
2013-08-11 22:17:00,70.0,-99.9,-100.00,NE,45,2.0,-999.0,0,-99.99,,,-99.99,,2013-08-12 03:17:00,
2013-08-11 22:26:00,69.0,-99.9,-100.00,ENE,68,2.0,-999.0,0,-99.99,,,-99.99,,2013-08-12 03:26:00,
2013-08-11 22:39:00,68.0,-99.9,-100.00,East,90,2.0,-999.0,0,-99.99,,,-99.99,,2013-08-12 03:39:00,
2013-08-11 23:01:00,69.0,-99.9,-100.00,East,90,2.0,-999.0,0,-99.99,,,-99.99,,2013-08-12 04:01:00,
2013-08-11 23:02:00,69.0,-99.9,-100.00,ENE,68,2.0,-999.0,0,-99.99,,,-99.99,,2013-08-12 04:02:00,
2013-08-11 23:12:00,69.0,-99.9,-100.00,ENE,68,2.0,-999.0,0,-99.99,,,-99.99,,2013-08-12 04:12:00,
2013-08-11 23:22:00,69.0,-99.9,-100.00,NW,315,0.0,-999.0,0,-99.99,,,-99.99,,2013-08-12 04:22:00,
2013-08-11 23:33:00,69.0,-99.9,-100.00,NW,315,2.0,-999.0,0,-99.99,,,-99.99,,2013-08-12 04:33:00,
2013-08-11 23:43:00,69.0,-99.9,-100.00,NW,315,2.0,-999.0,0,-99.99,,,-99.99,,2013-08-12 04:43:00,
2013-08-11 23:52:00,68.0,-99.9,-100.00,SW,225,0.0,-999.0,0,-99.99,,,-99.99,,2013-08-12 04:52:00,